Time,TemperatureF,DewpointF,PressureIn,WindDirection,WindDirectionDegrees,WindSpeedMPH,WindSpeedGustMPH,Humidity,HourlyPrecipIn,Conditions,Clouds,dailyrainin,SoftwareType,DateUTC
2013-01-22 00:00:00,7.1,-0.6,30.34,WNW,283,7.0,14.0,70,0.00,,,0.00,Wunderground v.1.15,2013-01-22 05:00:00,
2013-01-22 00:05:00,6.9,-0.8,30.34,NW,318,7.0,14.0,70,0.00,,,0.00,Wunderground v.1.15,2013-01-22 05:05:00,
2013-01-22 00:15:00,6.8,-0.6,30.35,WNW,296,5.0,14.0,71,0.00,,,0.00,Wunderground v.1.15,2013-01-22 05:15:00,
2013-01-22 00:20:00,6.7,-0.7,30.34,WNW,288,6.0,14.0,71,0.00,,,0.00,Wunderground v.1.15,2013-01-22 05:20:00,
2013-01-22 00:25:00,6.6,-0.5,30.35,WNW,298,5.0,14.0,72,0.00,,,0.00,Wunderground v.1.15,2013-01-22 05:25:00,
2013-01-22 00:30:00,6.5,-0.6,30.34,West,271,5.0,5.0,72,0.00,,,0.00,Wunderground v.1.15,2013-01-22 05:30:00,
2013-01-22 00:35:00,6.4,-0.7,30.34,WNW,300,5.0,8.0,72,0.00,,,0.00,Wunderground v.1.15,2013-01-22 05:35:00,
2013-01-22 00:40:00,6.4,-0.7,30.34,WNW,295,6.0,14.0,72,0.00,,,0.00,Wunderground v.1.15,2013-01-22 05:40:00,
2013-01-22 00:45:00,6.4,-0.7,30.34,WNW,286,6.0,14.0,72,0.00,,,0.00,Wunderground v.1.15,2013-01-22 05:45:00,
2013-01-22 00:50:00,6.3,-0.8,30.35,WNW,298,6.0,14.0,72,0.00,,,0.00,Wunderground v.1.15,2013-01-22 05:50:00,
2013-01-22 01:00:00,6.3,-0.5,30.35,WNW,288,7.0,7.0,73,0.00,,,0.00,Wunderground v.1.15,2013-01-22 06:00:00,
2013-01-22 01:10:00,6.3,-0.5,30.34,WSW,240,5.0,14.0,73,0.00,,,0.00,Wunderground v.1.15,2013-01-22 06:10:00,
2013-01-22 01:15:00,6.3,-0.5,30.34,WSW,252,5.0,14.0,73,0.00,,,0.00,Wunderground v.1.15,2013-01-22 06:15:00,
2013-01-22 01:20:00,6.2,-0.6,30.34,SW,236,5.0,5.0,73,0.00,,,0.00,Wunderground v.1.15,2013-01-22 06:20:00,
2013-01-22 01:25:00,6.1,-0.4,30.34,West,267,5.0,14.0,74,0.00,,,0.00,Wunderground v.1.15,2013-01-22 06:25:00,
2013-01-22 01:30:00,6.1,-0.4,30.34,NW,304,4.0,4.0,74,0.00,,,0.00,Wunderground v.1.15,2013-01-22 06:30:00,
2013-01-22 01:35:00,6.0,-0.5,30.34,NW,309,4.0,5.0,74,0.00,,,0.00,Wunderground v.1.15,2013-01-22 06:35:00,
2013-01-22 01:45:00,6.0,-0.8,30.34,West,268,6.0,6.0,73,0.00,,,0.00,Wunderground v.1.15,2013-01-22 06:45:00,
2013-01-22 01:50:00,6.0,-0.8,30.34,West,261,6.0,14.0,73,0.00,,,0.00,Wunderground v.1.15,2013-01-22 06:50:00,
2013-01-22 01:55:00,6.0,-0.8,30.34,West,261,6.0,14.0,73,0.00,,,0.00,Wunderground v.1.15,2013-01-22 06:55:00,
2013-01-22 02:00:00,6.0,-0.8,30.33,West,269,5.0,5.0,73,0.00,,,0.00,Wunderground v.1.15,2013-01-22 07:00:00,
2013-01-22 02:05:00,5.9,-0.6,30.34,WNW,290,5.0,6.0,74,0.00,,,0.00,Wunderground v.1.15,2013-01-22 07:05:00,
2013-01-22 02:10:00,5.9,-0.6,30.34,West,262,5.0,14.0,74,0.00,,,0.00,Wunderground v.1.15,2013-01-22 07:10:00,
2013-01-22 02:15:00,5.8,-0.7,30.34,WNW,285,6.0,14.0,74,0.00,,,0.00,Wunderground v.1.15,2013-01-22 07:15:00,
2013-01-22 02:20:00,5.8,-0.7,30.34,WNW,302,5.0,14.0,74,0.00,,,0.00,Wunderground v.1.15,2013-01-22 07:20:00,
2013-01-22 02:25:00,5.8,-0.4,30.34,WNW,284,4.0,14.0,75,0.00,,,0.00,Wunderground v.1.15,2013-01-22 07:25:00,
2013-01-22 02:30:00,5.7,-0.8,30.35,WNW,294,5.0,5.0,74,0.00,,,0.00,Wunderground v.1.15,2013-01-22 07:30:00,
2013-01-22 02:35:00,5.7,-0.5,30.35,NNE,15,4.0,6.0,75,0.00,,,0.00,Wunderground v.1.15,2013-01-22 07:35:00,
2013-01-22 02:40:00,5.6,-0.6,30.35,WNW,290,4.0,14.0,75,0.00,,,0.00,Wunderground v.1.15,2013-01-22 07:40:00,
2013-01-22 02:50:00,5.6,-0.6,30.35,WNW,283,4.0,4.0,75,0.00,,,0.00,Wunderground v.1.15,2013-01-22 07:50:00,
2013-01-22 02:55:00,5.5,-0.7,30.35,WSW,246,4.0,14.0,75,0.00,,,0.00,Wunderground v.1.15,2013-01-22 07:55:00,
2013-01-22 03:00:00,5.5,-0.7,30.35,WNW,282,5.0,14.0,75,0.00,,,0.00,Wunderground v.1.15,2013-01-22 08:00:00,
2013-01-22 03:05:00,5.4,-0.8,30.35,WSW,242,5.0,14.0,75,0.00,,,0.00,Wunderground v.1.15,2013-01-22 08:05:00,
2013-01-22 03:10:00,5.4,-0.8,30.35,WNW,299,4.0,4.0,75,0.00,,,0.00,Wunderground v.1.15,2013-01-22 08:10:00,
2013-01-22 03:20:00,5.4,-0.8,30.35,WSW,244,5.0,14.0,75,0.00,,,0.00,Wunderground v.1.15,2013-01-22 08:20:00,
2013-01-22 03:25:00,5.4,-0.5,30.36,NW,305,5.0,14.0,76,0.00,,,0.00,Wunderground v.1.15,2013-01-22 08:25:00,
2013-01-22 03:30:00,5.3,-0.6,30.36,WSW,248,4.0,14.0,76,0.00,,,0.00,Wunderground v.1.15,2013-01-22 08:30:00,
2013-01-22 03:35:00,5.3,-0.6,30.36,WSW,240,4.0,14.0,76,0.00,,,0.00,Wunderground v.1.15,2013-01-22 08:35:00,
2013-01-22 03:40:00,5.3,-0.6,30.36,WSW,242,4.0,4.0,76,0.00,,,0.00,Wunderground v.1.15,2013-01-22 08:40:00,
2013-01-22 03:45:00,5.2,-0.7,30.36,West,278,3.0,14.0,76,0.00,,,0.00,Wunderground v.1.15,2013-01-22 08:45:00,
2013-01-22 03:55:00,5.1,-0.8,30.36,West,279,4.0,14.0,76,0.00,,,0.00,Wunderground v.1.15,2013-01-22 08:55:00,
2013-01-22 04:00:00,5.1,-0.8,30.36,NNW,335,5.0,5.0,76,0.00,,,0.00,Wunderground v.1.15,2013-01-22 09:00:00,
2013-01-22 04:05:00,5.1,-0.8,30.36,WSW,248,5.0,14.0,76,0.00,,,0.00,Wunderground v.1.15,2013-01-22 09:05:00,
2013-01-22 04:10:00,5.1,-0.8,30.36,West,271,4.0,4.0,76,0.00,,,0.00,Wunderground v.1.15,2013-01-22 09:10:00,
2013-01-22 04:15:00,5.1,-0.8,30.36,NNW,330,4.0,5.0,76,0.00,,,0.00,Wunderground v.1.15,2013-01-22 09:15:00,
2013-01-22 04:25:00,5.1,-0.8,30.36,NW,304,5.0,14.0,76,0.00,,,0.00,Wunderground v.1.15,2013-01-22 09:25:00,
2013-01-22 04:30:00,5.1,-0.8,30.37,West,281,4.0,14.0,76,0.00,,,0.00,Wunderground v.1.15,2013-01-22 09:30:00,
2013-01-22 04:35:00,5.0,-0.9,30.37,West,269,4.0,14.0,76,0.00,,,0.00,Wunderground v.1.15,2013-01-22 09:35:00,
2013-01-22 04:40:00,5.0,-0.9,30.37,NW,313,4.0,4.0,76,0.00,,,0.00,Wunderground v.1.15,2013-01-22 09:40:00,
2013-01-22 04:45:00,5.0,-0.9,30.37,NNW,342,4.0,14.0,76,0.00,,,0.00,Wunderground v.1.15,2013-01-22 09:45:00,
2013-01-22 04:50:00,5.0,-0.9,30.37,West,270,4.0,14.0,76,0.00,,,0.00,Wunderground v.1.15,2013-01-22 09:50:00,
2013-01-22 05:00:00,4.9,-0.7,30.37,NNW,327,5.0,14.0,77,0.00,,,0.00,Wunderground v.1.15,2013-01-22 10:00:00,
2013-01-22 05:05:00,4.9,-1.0,30.37,NW,325,5.0,14.0,76,0.00,,,0.00,Wunderground v.1.15,2013-01-22 10:05:00,
2013-01-22 05:10:00,4.9,-1.0,30.37,WNW,287,5.0,14.0,76,0.00,,,0.00,Wunderground v.1.15,2013-01-22 10:10:00,
2013-01-22 05:15:00,4.8,-0.8,30.37,WNW,292,5.0,14.0,77,0.00,,,0.00,Wunderground v.1.15,2013-01-22 10:15:00,
2013-01-22 05:20:00,4.8,-0.8,30.37,WNW,296,4.0,14.0,77,0.00,,,0.00,Wunderground v.1.15,2013-01-22 10:20:00,
2013-01-22 05:30:00,4.8,-1.1,30.37,NW,310,6.0,14.0,76,0.00,,,0.00,Wunderground v.1.15,2013-01-22 10:30:00,
2013-01-22 05:35:00,4.7,-1.2,30.37,West,278,5.0,14.0,76,0.00,,,0.00,Wunderground v.1.15,2013-01-22 10:35:00,
2013-01-22 05:40:00,4.7,-1.2,30.37,WNW,299,5.0,5.0,76,0.00,,,0.00,Wunderground v.1.15,2013-01-22 10:40:00,
2013-01-22 05:45:00,4.7,-1.2,30.37,WNW,300,4.0,8.0,76,0.00,,,0.00,Wunderground v.1.15,2013-01-22 10:45:00,
2013-01-22 05:50:00,4.6,-1.3,30.37,NW,312,4.0,4.0,76,0.00,,,0.00,Wunderground v.1.15,2013-01-22 10:50:00,
2013-01-22 05:55:00,4.6,-1.3,30.37,NW,323,5.0,5.0,76,0.00,,,0.00,Wunderground v.1.15,2013-01-22 10:55:00,
2013-01-22 06:00:00,4.6,-1.3,30.37,WNW,290,5.0,5.0,76,0.00,,,0.00,Wunderground v.1.15,2013-01-22 11:00:00,
2013-01-22 06:10:00,4.6,-1.3,30.38,NW,315,6.0,6.0,76,0.00,,,0.00,Wunderground v.1.15,2013-01-22 11:10:00,
2013-01-22 06:15:00,4.6,-1.3,30.38,NW,317,5.0,6.0,76,0.00,,,0.00,Wunderground v.1.15,2013-01-22 11:15:00,
2013-01-22 06:20:00,4.5,-1.1,30.38,NW,313,6.0,6.0,77,0.00,,,0.00,Wunderground v.1.15,2013-01-22 11:20:00,
2013-01-22 06:25:00,4.5,-1.1,30.38,West,267,5.0,6.0,77,0.00,,,0.00,Wunderground v.1.15,2013-01-22 11:25:00,
2013-01-22 06:35:00,4.5,-1.1,30.38,WSW,257,6.0,6.0,77,0.00,,,0.00,Wunderground v.1.15,2013-01-22 11:35:00,
2013-01-22 06:40:00,4.4,-1.2,30.39,NW,304,5.0,5.0,77,0.00,,,0.00,Wunderground v.1.15,2013-01-22 11:40:00,
2013-01-22 06:45:00,4.4,-0.9,30.39,WNW,291,4.0,5.0,78,0.00,,,0.00,Wunderground v.1.15,2013-01-22 11:45:00,
2013-01-22 06:50:00,4.3,-1.0,30.39,WSW,242,5.0,5.0,78,0.00,,,0.00,Wunderground v.1.15,2013-01-22 11:50:00,
2013-01-22 06:55:00,4.3,-1.0,30.40,NW,325,5.0,5.0,78,0.00,,,0.00,Wunderground v.1.15,2013-01-22 11:55:00,
2013-01-22 07:00:00,4.3,-1.0,30.40,WNW,289,5.0,5.0,78,0.00,,,0.00,Wunderground v.1.15,2013-01-22 12:00:00,
2013-01-22 07:05:00,4.2,-1.1,30.40,WSW,253,4.0,13.0,78,0.00,,,0.00,Wunderground v.1.15,2013-01-22 12:05:00,
2013-01-22 07:10:00,4.2,-1.1,30.40,West,273,4.0,13.0,78,0.00,,,0.00,Wunderground v.1.15,2013-01-22 12:10:00,
2013-01-22 07:15:00,4.2,-1.1,30.40,WNW,300,5.0,13.0,78,0.00,,,0.00,Wunderground v.1.15,2013-01-22 12:15:00,
2013-01-22 07:25:00,4.1,-1.2,30.40,WNW,297,6.0,10.0,78,0.00,,,0.00,Wunderground v.1.15,2013-01-22 12:25:00,
2013-01-22 07:30:00,4.1,-1.0,30.40,WNW,287,4.0,8.0,79,0.00,,,0.00,Wunderground v.1.15,2013-01-22 12:30:00,
2013-01-22 07:35:00,4.1,-1.0,30.40,WNW,296,4.0,8.0,79,0.00,,,0.00,Wunderground v.1.15,2013-01-22 12:35:00,
2013-01-22 07:45:00,4.0,-1.1,30.40,WNW,303,5.0,5.0,79,0.00,,,0.00,Wunderground v.1.15,2013-01-22 12:45:00,
2013-01-22 07:50:00,4.0,-1.1,30.41,WNW,286,5.0,5.0,79,0.00,,,0.00,Wunderground v.1.15,2013-01-22 12:50:00,
2013-01-22 07:55:00,3.9,-1.2,30.41,WNW,296,5.0,5.0,79,0.00,,,0.00,Wunderground v.1.15,2013-01-22 12:55:00,
2013-01-22 08:00:00,3.9,-1.2,30.41,West,278,4.0,6.0,79,0.00,,,0.00,Wunderground v.1.15,2013-01-22 13:00:00,
2013-01-22 08:05:00,3.8,-1.3,30.41,West,276,4.0,12.0,79,0.00,,,0.00,Wunderground v.1.15,2013-01-22 13:05:00,
2013-01-22 08:15:00,3.8,-1.3,30.41,WNW,285,5.0,12.0,79,0.00,,,0.00,Wunderground v.1.15,2013-01-22 13:15:00,
2013-01-22 08:20:00,3.8,-1.3,30.41,West,273,5.0,5.0,79,0.00,,,0.00,Wunderground v.1.15,2013-01-22 13:20:00,
2013-01-22 08:25:00,3.8,-1.3,30.41,NW,316,5.0,12.0,79,0.00,,,0.00,Wunderground v.1.15,2013-01-22 13:25:00,
2013-01-22 08:30:00,3.8,-1.3,30.42,West,279,4.0,4.0,79,0.00,,,0.00,Wunderground v.1.15,2013-01-22 13:30:00,
2013-01-22 08:35:00,3.9,-1.2,30.42,WNW,291,4.0,12.0,79,0.00,,,0.00,Wunderground v.1.15,2013-01-22 13:35:00,
2013-01-22 08:40:00,4.0,-1.1,30.42,WNW,294,4.0,12.0,79,0.00,,,0.00,Wunderground v.1.15,2013-01-22 13:40:00,
2013-01-22 08:50:00,4.1,-1.0,30.42,NW,313,6.0,6.0,79,0.00,,,0.00,Wunderground v.1.15,2013-01-22 13:50:00,
2013-01-22 08:55:00,4.3,-0.8,30.42,WSW,252,6.0,12.0,79,0.00,,,0.00,Wunderground v.1.15,2013-01-22 13:55:00,
2013-01-22 09:00:00,4.4,-0.7,30.42,West,263,5.0,12.0,79,0.00,,,0.00,Wunderground v.1.15,2013-01-22 14:00:00,
2013-01-22 09:05:00,4.6,-0.5,30.43,WNW,288,5.0,12.0,79,0.00,,,0.00,Wunderground v.1.15,2013-01-22 14:05:00,
2013-01-22 09:10:00,4.6,-0.8,30.43,West,266,5.0,5.0,78,0.00,,,0.00,Wunderground v.1.15,2013-01-22 14:10:00,
2013-01-22 09:20:00,4.9,-0.5,30.43,West,264,5.0,12.0,78,0.00,,,0.00,Wunderground v.1.15,2013-01-22 14:20:00,
2013-01-22 09:25:00,4.9,-0.7,30.43,NNW,331,5.0,12.0,77,0.00,,,0.00,Wunderground v.1.15,2013-01-22 14:25:00,
2013-01-22 09:30:00,5.0,-0.6,30.43,WNW,294,6.0,12.0,77,0.00,,,0.00,Wunderground v.1.15,2013-01-22 14:30:00,
2013-01-22 09:35:00,5.1,-0.5,30.43,NNW,327,8.0,12.0,77,0.00,,,0.00,Wunderground v.1.15,2013-01-22 14:35:00,
2013-01-22 09:40:00,5.4,-0.2,30.43,WNW,295,7.0,7.0,77,0.00,,,0.00,Wunderground v.1.15,2013-01-22 14:40:00,
2013-01-22 09:45:00,5.8,-0.1,30.44,West,278,6.0,8.0,76,0.00,,,0.00,Wunderground v.1.15,2013-01-22 14:45:00,
2013-01-22 09:55:00,5.8,-0.7,30.44,WNW,286,7.0,12.0,74,0.00,,,0.00,Wunderground v.1.15,2013-01-22 14:55:00,
2013-01-22 10:00:00,5.7,-0.8,30.44,West,279,6.0,12.0,74,0.00,,,0.00,Wunderground v.1.15,2013-01-22 15:00:00,
2013-01-22 10:05:00,5.6,-0.9,30.44,WNW,282,6.0,12.0,74,0.00,,,0.00,Wunderground v.1.15,2013-01-22 15:05:00,
2013-01-22 10:10:00,5.6,-1.2,30.44,NNW,335,7.0,12.0,73,0.00,,,0.00,Wunderground v.1.15,2013-01-22 15:10:00,
2013-01-22 10:15:00,5.5,-1.3,30.44,NW,308,8.0,12.0,73,0.00,,,0.00,Wunderground v.1.15,2013-01-22 15:15:00,
2013-01-22 10:25:00,6.0,-0.2,30.45,WNW,300,5.0,9.0,75,0.00,,,0.00,Wunderground v.1.15,2013-01-22 15:25:00,
2013-01-22 10:30:00,6.4,-0.4,30.45,NNW,341,6.0,12.0,73,0.00,,,0.00,Wunderground v.1.15,2013-01-22 15:30:00,
2013-01-22 10:35:00,6.6,-0.5,30.45,NW,308,7.0,13.0,72,0.00,,,0.00,Wunderground v.1.15,2013-01-22 15:35:00,
2013-01-22 10:40:00,6.7,-0.4,30.44,WNW,284,7.0,12.0,72,0.00,,,0.00,Wunderground v.1.15,2013-01-22 15:40:00,
2013-01-22 10:45:00,7.3,0.5,30.44,WNW,285,7.0,12.0,73,0.00,,,0.00,Wunderground v.1.15,2013-01-22 15:45:00,
2013-01-22 10:50:00,7.5,0.1,30.45,West,267,6.0,6.0,71,0.00,,,0.00,Wunderground v.1.15,2013-01-22 15:50:00,
2013-01-22 10:55:00,7.3,0.2,30.45,WNW,298,6.0,8.0,72,0.00,,,0.00,Wunderground v.1.15,2013-01-22 15:55:00,
2013-01-22 11:00:00,7.6,0.7,30.45,WNW,299,6.0,6.0,73,0.00,,,0.00,Wunderground v.1.15,2013-01-22 16:00:00,
2013-01-22 11:05:00,8.4,1.8,30.45,West,274,5.0,12.0,74,0.00,,,0.00,Wunderground v.1.15,2013-01-22 16:05:00,
2013-01-22 11:10:00,8.1,0.6,30.45,WSW,248,5.0,12.0,71,0.00,,,0.00,Wunderground v.1.15,2013-01-22 16:10:00,
2013-01-22 11:15:00,8.0,0.5,30.45,NW,321,6.0,12.0,71,0.00,,,0.00,Wunderground v.1.15,2013-01-22 16:15:00,
2013-01-22 11:25:00,8.3,0.2,30.45,NW,314,7.0,14.0,69,0.00,,,0.00,Wunderground v.1.15,2013-01-22 16:25:00,
2013-01-22 11:30:00,8.3,-0.1,30.45,West,279,7.0,12.0,68,0.00,,,0.00,Wunderground v.1.15,2013-01-22 16:30:00,
2013-01-22 11:35:00,8.3,-0.1,30.45,NNW,329,8.0,12.0,68,0.00,,,0.00,Wunderground v.1.15,2013-01-22 16:35:00,
2013-01-22 11:40:00,8.6,-0.1,30.45,West,279,7.0,7.0,67,0.00,,,0.00,Wunderground v.1.15,2013-01-22 16:40:00,
2013-01-22 11:45:00,8.9,0.5,30.45,NW,312,6.0,8.0,68,0.00,,,0.00,Wunderground v.1.15,2013-01-22 16:45:00,
2013-01-22 11:50:00,9.1,0.4,30.44,NW,311,6.0,6.0,67,0.00,,,0.00,Wunderground v.1.15,2013-01-22 16:50:00,
2013-01-22 11:55:00,9.2,0.1,30.44,SW,221,6.0,12.0,66,0.00,,,0.00,Wunderground v.1.15,2013-01-22 16:55:00,
2013-01-22 12:05:00,9.7,0.3,30.43,WNW,292,5.0,12.0,65,0.00,,,0.00,Wunderground v.1.15,2013-01-22 17:05:00,
2013-01-22 12:10:00,10.3,0.5,30.43,NW,323,6.0,12.0,64,0.00,,,0.00,Wunderground v.1.15,2013-01-22 17:10:00,
2013-01-22 12:15:00,9.9,-0.5,30.43,West,268,5.0,12.0,62,0.00,,,0.00,Wunderground v.1.15,2013-01-22 17:15:00,
2013-01-22 12:20:00,9.9,-0.2,30.43,NW,320,6.0,6.0,63,0.00,,,0.00,Wunderground v.1.15,2013-01-22 17:20:00,
2013-01-22 12:25:00,10.3,0.2,30.43,NW,313,7.0,7.0,63,0.00,,,0.00,Wunderground v.1.15,2013-01-22 17:25:00,
2013-01-22 12:30:00,10.4,0.3,30.42,WSW,242,7.0,7.0,63,0.00,,,0.00,Wunderground v.1.15,2013-01-22 17:30:00,
2013-01-22 12:40:00,11.2,0.7,30.42,West,276,6.0,12.0,62,0.00,,,0.00,Wunderground v.1.15,2013-01-22 17:40:00,
2013-01-22 12:45:00,10.9,-0.3,30.42,South,190,6.0,12.0,60,0.00,,,0.00,Wunderground v.1.15,2013-01-22 17:45:00,
2013-01-22 12:50:00,11.3,0.1,30.41,WNW,287,6.0,12.0,60,0.00,,,0.00,Wunderground v.1.15,2013-01-22 17:50:00,
2013-01-22 12:55:00,11.6,0.7,30.41,West,261,6.0,12.0,61,0.00,,,0.00,Wunderground v.1.15,2013-01-22 17:55:00,
2013-01-22 13:00:00,11.6,0.4,30.40,WNW,286,6.0,12.0,60,0.00,,,0.00,Wunderground v.1.15,2013-01-22 18:00:00,
2013-01-22 13:05:00,11.7,0.5,30.40,NW,304,7.0,12.0,60,0.00,,,0.00,Wunderground v.1.15,2013-01-22 18:05:00,
2013-01-22 13:15:00,12.2,0.6,30.40,SSW,203,6.0,12.0,59,0.00,,,0.00,Wunderground v.1.15,2013-01-22 18:15:00,
2013-01-22 13:20:00,12.4,0.4,30.40,WNW,290,6.0,12.0,58,0.00,,,0.00,Wunderground v.1.15,2013-01-22 18:20:00,
2013-01-22 13:25:00,12.5,0.5,30.40,West,261,7.0,12.0,58,0.00,,,0.00,Wunderground v.1.15,2013-01-22 18:25:00,
2013-01-22 13:30:00,12.2,-0.5,30.39,WSW,248,7.0,7.0,56,0.00,,,0.00,Wunderground v.1.15,2013-01-22 18:30:00,
2013-01-22 13:35:00,12.5,-0.2,30.39,West,265,6.0,8.0,56,0.00,,,0.00,Wunderground v.1.15,2013-01-22 18:35:00,
2013-01-22 13:45:00,13.0,0.6,30.40,WSW,248,8.0,12.0,57,0.00,,,0.00,Wunderground v.1.15,2013-01-22 18:45:00,
2013-01-22 13:50:00,13.1,-0.5,30.40,West,279,8.0,12.0,54,0.00,,,0.00,Wunderground v.1.15,2013-01-22 18:50:00,
2013-01-22 13:55:00,13.2,0.4,30.40,WNW,288,8.0,12.0,56,0.00,,,0.00,Wunderground v.1.15,2013-01-22 18:55:00,
2013-01-22 14:00:00,13.5,-0.1,30.39,NNW,348,7.0,7.0,54,0.00,,,0.00,Wunderground v.1.15,2013-01-22 19:00:00,
2013-01-22 14:05:00,13.7,0.5,30.39,West,279,6.0,12.0,55,0.00,,,0.00,Wunderground v.1.15,2013-01-22 19:05:00,
2013-01-22 14:10:00,13.6,0.4,30.40,West,280,7.0,12.0,55,0.00,,,0.00,Wunderground v.1.15,2013-01-22 19:10:00,
2013-01-22 14:20:00,14.0,0.4,30.40,WSW,257,7.0,12.0,54,0.00,,,0.00,Wunderground v.1.15,2013-01-22 19:20:00,
2013-01-22 14:25:00,14.0,0.8,30.40,NW,325,6.0,12.0,55,0.00,,,0.00,Wunderground v.1.15,2013-01-22 19:25:00,
2013-01-22 14:30:00,14.1,1.3,30.39,WNW,298,7.0,12.0,56,0.00,,,0.00,Wunderground v.1.15,2013-01-22 19:30:00,
2013-01-22 14:40:00,14.4,0.8,30.39,NW,312,7.0,12.0,54,0.00,,,0.00,Wunderground v.1.15,2013-01-22 19:40:00,
2013-01-22 14:45:00,14.4,0.4,30.39,North,349,8.0,12.0,53,0.00,,,0.00,Wunderground v.1.15,2013-01-22 19:45:00,
2013-01-22 14:50:00,14.5,0.9,30.39,West,281,8.0,12.0,54,0.00,,,0.00,Wunderground v.1.15,2013-01-22 19:50:00,
2013-01-22 14:55:00,14.6,0.5,30.38,West,271,7.0,12.0,53,0.00,,,0.00,Wunderground v.1.15,2013-01-22 19:55:00,
2013-01-22 15:05:00,15.2,0.7,30.39,WSW,244,7.0,12.0,52,0.00,,,0.00,Wunderground v.1.15,2013-01-22 20:05:00,
2013-01-22 15:10:00,15.3,0.8,30.39,SW,233,6.0,6.0,52,0.00,,,0.00,Wunderground v.1.15,2013-01-22 20:10:00,
2013-01-22 15:15:00,15.3,0.4,30.39,SSW,212,6.0,12.0,51,0.00,,,0.00,Wunderground v.1.15,2013-01-22 20:15:00,
2013-01-22 15:20:00,15.3,0.4,30.39,West,269,7.0,12.0,51,0.00,,,0.00,Wunderground v.1.15,2013-01-22 20:20:00,
2013-01-22 15:25:00,15.4,0.9,30.39,WNW,292,7.0,12.0,52,0.00,,,0.00,Wunderground v.1.15,2013-01-22 20:25:00,
2013-01-22 15:30:00,15.8,1.3,30.39,WNW,296,6.0,12.0,52,0.00,,,0.00,Wunderground v.1.15,2013-01-22 20:30:00,
2013-01-22 15:35:00,16.1,1.5,30.39,WNW,284,4.0,12.0,52,0.00,,,0.00,Wunderground v.1.15,2013-01-22 20:35:00,
2013-01-22 15:45:00,15.8,0.4,30.39,WNW,302,7.0,12.0,50,0.00,,,0.00,Wunderground v.1.15,2013-01-22 20:45:00,
2013-01-22 15:50:00,16.0,0.6,30.39,WNW,298,6.0,12.0,50,0.00,,,0.00,Wunderground v.1.15,2013-01-22 20:50:00,
2013-01-22 15:55:00,16.4,1.0,30.39,WNW,287,5.0,12.0,50,0.00,,,0.00,Wunderground v.1.15,2013-01-22 20:55:00,
2013-01-22 16:05:00,16.3,0.5,30.39,WSW,248,5.0,12.0,49,0.00,,,0.00,Wunderground v.1.15,2013-01-22 21:05:00,
2013-01-22 16:10:00,16.2,0.4,30.39,NW,315,5.0,5.0,49,0.00,,,0.00,Wunderground v.1.15,2013-01-22 21:10:00,
2013-01-22 16:15:00,15.9,0.1,30.39,WNW,292,7.0,7.0,49,0.00,,,0.00,Wunderground v.1.15,2013-01-22 21:15:00,
2013-01-22 16:20:00,15.7,-0.1,30.39,West,273,6.0,12.0,49,0.00,,,0.00,Wunderground v.1.15,2013-01-22 21:20:00,
2013-01-22 16:30:00,15.5,-0.3,30.38,WNW,300,6.0,12.0,49,0.00,,,0.00,Wunderground v.1.15,2013-01-22 21:30:00,
2013-01-22 16:35:00,15.3,-0.5,30.38,NW,311,6.0,12.0,49,0.00,,,0.00,Wunderground v.1.15,2013-01-22 21:35:00,
2013-01-22 16:40:00,14.9,-0.4,30.39,West,260,6.0,12.0,50,0.00,,,0.00,Wunderground v.1.15,2013-01-22 21:40:00,
2013-01-22 16:45:00,14.8,-0.5,30.38,NW,309,6.0,12.0,50,0.00,,,0.00,Wunderground v.1.15,2013-01-22 21:45:00,
2013-01-22 16:50:00,14.8,-0.5,30.38,NW,309,5.0,5.0,50,0.00,,,0.00,Wunderground v.1.15,2013-01-22 21:50:00,
2013-01-22 16:55:00,14.8,-0.1,30.38,NW,313,5.0,12.0,51,0.00,,,0.00,Wunderground v.1.15,2013-01-22 21:55:00,
2013-01-22 17:00:00,14.6,-0.3,30.38,NW,309,5.0,5.0,51,0.00,,,0.00,Wunderground v.1.15,2013-01-22 22:00:00,
2013-01-22 17:05:00,14.6,-0.3,30.38,WNW,288,5.0,12.0,51,0.00,,,0.00,Wunderground v.1.15,2013-01-22 22:05:00,
2013-01-22 17:10:00,14.5,-0.4,30.39,West,265,5.0,12.0,51,0.00,,,0.00,Wunderground v.1.15,2013-01-22 22:10:00,
2013-01-22 17:15:00,14.4,-0.5,30.39,WNW,292,4.0,12.0,51,0.00,,,0.00,Wunderground v.1.15,2013-01-22 22:15:00,
2013-01-22 17:25:00,14.2,-0.2,30.38,NW,316,6.0,12.0,52,0.00,,,0.00,Wunderground v.1.15,2013-01-22 22:25:00,
2013-01-22 17:30:00,14.2,0.2,30.38,WNW,297,6.0,6.0,53,0.00,,,0.00,Wunderground v.1.15,2013-01-22 22:30:00,
2013-01-22 17:35:00,14.1,0.1,30.38,SW,234,4.0,12.0,53,0.00,,,0.00,Wunderground v.1.15,2013-01-22 22:35:00,
2013-01-22 17:40:00,14.0,0.0,30.38,West,276,4.0,4.0,53,0.00,,,0.00,Wunderground v.1.15,2013-01-22 22:40:00,
2013-01-22 17:45:00,13.9,-0.1,30.38,West,278,4.0,12.0,53,0.00,,,0.00,Wunderground v.1.15,2013-01-22 22:45:00,
2013-01-22 17:55:00,13.8,0.2,30.38,West,259,4.0,12.0,54,0.00,,,0.00,Wunderground v.1.15,2013-01-22 22:55:00,
2013-01-22 18:00:00,13.7,-0.3,30.38,NW,304,5.0,12.0,53,0.00,,,0.00,Wunderground v.1.15,2013-01-22 23:00:00,
2013-01-22 18:10:00,13.6,0.0,30.38,NW,311,5.0,5.0,54,0.00,,,0.00,Wunderground v.1.15,2013-01-22 23:10:00,
2013-01-22 18:15:00,13.5,0.3,30.38,NW,317,4.0,12.0,55,0.00,,,0.00,Wunderground v.1.15,2013-01-22 23:15:00,
2013-01-22 18:20:00,13.4,0.2,30.38,WNW,284,4.0,12.0,55,0.00,,,0.00,Wunderground v.1.15,2013-01-22 23:20:00,
2013-01-22 18:25:00,13.3,0.1,30.39,WNW,297,4.0,12.0,55,0.00,,,0.00,Wunderground v.1.15,2013-01-22 23:25:00,
2013-01-22 18:30:00,13.2,0.0,30.39,NW,309,5.0,12.0,55,0.00,,,0.00,Wunderground v.1.15,2013-01-22 23:30:00,
2013-01-22 18:40:00,13.2,0.4,30.39,WNW,290,4.0,12.0,56,0.00,,,0.00,Wunderground v.1.15,2013-01-22 23:40:00,
2013-01-22 18:45:00,13.1,0.7,30.39,WNW,293,4.0,12.0,57,0.00,,,0.00,Wunderground v.1.15,2013-01-22 23:45:00,
2013-01-22 18:50:00,13.1,0.7,30.39,WNW,296,3.0,12.0,57,0.00,,,0.00,Wunderground v.1.15,2013-01-22 23:50:00,
2013-01-22 18:55:00,13.2,0.4,30.39,WNW,284,4.0,12.0,56,0.00,,,0.00,Wunderground v.1.15,2013-01-22 23:55:00,
2013-01-22 19:00:00,13.2,0.8,30.39,WNW,298,4.0,4.0,57,0.00,,,0.00,Wunderground v.1.15,2013-01-23 00:00:00,
2013-01-22 19:05:00,13.2,0.8,30.39,WNW,298,4.0,12.0,57,0.00,,,0.00,Wunderground v.1.15,2013-01-23 00:05:00,
2013-01-22 19:15:00,13.2,0.8,30.39,NNW,327,4.0,12.0,57,0.00,,,0.00,Wunderground v.1.15,2013-01-23 00:15:00,
2013-01-22 19:20:00,13.2,0.8,30.39,NW,308,5.0,5.0,57,0.00,,,0.00,Wunderground v.1.15,2013-01-23 00:20:00,
2013-01-22 19:25:00,13.2,0.8,30.39,West,272,5.0,12.0,57,0.00,,,0.00,Wunderground v.1.15,2013-01-23 00:25:00,
2013-01-22 19:30:00,13.2,0.8,30.39,NW,320,4.0,12.0,57,0.00,,,0.00,Wunderground v.1.15,2013-01-23 00:30:00,
2013-01-22 19:35:00,13.2,0.8,30.39,NW,311,4.0,12.0,57,0.00,,,0.00,Wunderground v.1.15,2013-01-23 00:35:00,
2013-01-22 19:45:00,13.2,0.8,30.38,NW,313,4.0,12.0,57,0.00,,,0.00,Wunderground v.1.15,2013-01-23 00:45:00,
2013-01-22 19:50:00,13.3,1.3,30.38,WNW,298,3.0,3.0,58,0.00,,,0.00,Wunderground v.1.15,2013-01-23 00:50:00,
2013-01-22 19:55:00,13.3,1.3,30.37,WNW,294,2.0,12.0,58,0.00,,,0.00,Wunderground v.1.15,2013-01-23 00:55:00,
2013-01-22 20:00:00,13.3,1.3,30.37,NNW,342,2.0,12.0,58,0.00,,,0.00,Wunderground v.1.15,2013-01-23 01:00:00,
2013-01-22 20:05:00,13.4,1.7,30.38,WNW,282,3.0,12.0,59,0.00,,,0.00,Wunderground v.1.15,2013-01-23 01:05:00,
2013-01-22 20:10:00,13.4,1.4,30.38,SW,224,3.0,3.0,58,0.00,,,0.00,Wunderground v.1.15,2013-01-23 01:10:00,
2013-01-22 20:20:00,13.4,1.4,30.38,NW,313,3.0,12.0,58,0.00,,,0.00,Wunderground v.1.15,2013-01-23 01:20:00,
2013-01-22 20:25:00,13.4,1.0,30.38,NW,309,4.0,12.0,57,0.00,,,0.00,Wunderground v.1.15,2013-01-23 01:25:00,
2013-01-22 20:30:00,13.4,1.4,30.38,WNW,298,5.0,5.0,58,0.00,,,0.00,Wunderground v.1.15,2013-01-23 01:30:00,
2013-01-22 20:35:00,13.4,1.0,30.38,WNW,290,5.0,12.0,57,0.00,,,0.00,Wunderground v.1.15,2013-01-23 01:35:00,
2013-01-22 20:40:00,13.4,1.4,30.38,WNW,287,4.0,4.0,58,0.00,,,0.00,Wunderground v.1.15,2013-01-23 01:40:00,
2013-01-22 20:45:00,13.5,1.4,30.38,WNW,284,4.0,5.0,58,0.00,,,0.00,Wunderground v.1.15,2013-01-23 01:45:00,
2013-01-22 20:50:00,13.4,1.4,30.38,WNW,290,4.0,4.0,58,0.00,,,0.00,Wunderground v.1.15,2013-01-23 01:50:00,
2013-01-22 20:55:00,13.4,1.4,30.38,NW,325,4.0,5.0,58,0.00,,,0.00,Wunderground v.1.15,2013-01-23 01:55:00,
2013-01-22 21:00:00,13.5,1.8,30.38,West,273,4.0,12.0,59,0.00,,,0.00,Wunderground v.1.15,2013-01-23 02:00:00,
2013-01-22 21:05:00,13.5,2.2,30.38,WNW,298,3.0,12.0,60,0.00,,,0.00,Wunderground v.1.15,2013-01-23 02:05:00,
2013-01-22 21:15:00,13.5,2.2,30.38,WNW,298,3.0,12.0,60,0.00,,,0.00,Wunderground v.1.15,2013-01-23 02:15:00,
2013-01-22 21:25:00,13.5,2.5,30.38,NW,304,3.0,12.0,61,0.00,,,0.00,Wunderground v.1.15,2013-01-23 02:25:00,
2013-01-22 21:30:00,13.5,2.2,30.38,WNW,287,3.0,12.0,60,0.00,,,0.00,Wunderground v.1.15,2013-01-23 02:30:00,
2013-01-22 21:35:00,13.6,2.3,30.39,WNW,293,3.0,12.0,60,0.00,,,0.00,Wunderground v.1.15,2013-01-23 02:35:00,
2013-01-22 21:40:00,13.5,2.2,30.39,WNW,284,3.0,12.0,60,0.00,,,0.00,Wunderground v.1.15,2013-01-23 02:40:00,
2013-01-22 21:45:00,13.5,2.2,30.39,WNW,292,3.0,12.0,60,0.00,,,0.00,Wunderground v.1.15,2013-01-23 02:45:00,
2013-01-22 21:50:00,13.5,2.5,30.39,West,273,2.0,12.0,61,0.00,,,0.00,Wunderground v.1.15,2013-01-23 02:50:00,
2013-01-22 22:00:00,13.5,2.5,30.39,NW,313,3.0,12.0,61,0.00,,,0.00,Wunderground v.1.15,2013-01-23 03:00:00,
2013-01-22 22:05:00,13.5,2.5,30.39,West,267,3.0,12.0,61,0.00,,,0.00,Wunderground v.1.15,2013-01-23 03:05:00,
2013-01-22 22:20:00,13.5,2.5,30.39,WNW,283,3.0,12.0,61,0.00,,,0.00,Wunderground v.1.15,2013-01-23 03:20:00,
2013-01-22 22:25:00,13.5,2.9,30.39,WNW,292,3.0,12.0,62,0.00,,,0.00,Wunderground v.1.15,2013-01-23 03:25:00,
2013-01-22 22:30:00,13.4,2.4,30.40,NW,304,3.0,3.0,61,0.00,,,0.00,Wunderground v.1.15,2013-01-23 03:30:00,
2013-01-22 22:35:00,13.4,2.8,30.40,WNW,301,3.0,12.0,62,0.00,,,0.00,Wunderground v.1.15,2013-01-23 03:35:00,
2013-01-22 22:45:00,13.4,2.8,30.40,WNW,302,3.0,12.0,62,0.00,,,0.00,Wunderground v.1.15,2013-01-23 03:45:00,
2013-01-22 22:50:00,13.3,2.7,30.40,WNW,294,3.0,3.0,62,0.00,,,0.00,Wunderground v.1.15,2013-01-23 03:50:00,
2013-01-22 22:55:00,13.4,3.1,30.39,NW,306,3.0,12.0,63,0.00,,,0.00,Wunderground v.1.15,2013-01-23 03:55:00,
2013-01-22 23:00:00,13.3,3.4,30.40,NNW,340,2.0,12.0,64,0.00,,,0.00,Wunderground v.1.15,2013-01-23 04:00:00,
2013-01-22 23:05:00,13.4,3.1,30.40,NW,325,2.0,12.0,63,0.00,,,0.00,Wunderground v.1.15,2013-01-23 04:05:00,
2013-01-22 23:15:00,13.3,3.0,30.40,NW,323,3.0,12.0,63,0.00,,,0.00,Wunderground v.1.15,2013-01-23 04:15:00,
2013-01-22 23:20:00,13.2,2.9,30.40,NW,315,3.0,3.0,63,0.00,,,0.00,Wunderground v.1.15,2013-01-23 04:20:00,
2013-01-22 23:25:00,13.2,3.3,30.40,NW,313,2.0,4.0,64,0.00,,,0.00,Wunderground v.1.15,2013-01-23 04:25:00,
2013-01-22 23:30:00,13.2,2.9,30.40,WNW,288,3.0,3.0,63,0.00,,,0.00,Wunderground v.1.15,2013-01-23 04:30:00,
2013-01-22 23:35:00,13.2,2.9,30.40,WNW,291,3.0,4.0,63,0.00,,,0.00,Wunderground v.1.15,2013-01-23 04:35:00,
2013-01-22 23:40:00,13.2,2.9,30.39,West,262,3.0,3.0,63,0.00,,,0.00,Wunderground v.1.15,2013-01-23 04:40:00,
2013-01-22 23:45:00,13.2,2.9,30.39,WNW,298,3.0,3.0,63,0.00,,,0.00,Wunderground v.1.15,2013-01-23 04:45:00,
2013-01-22 23:50:00,13.2,2.9,30.39,NW,304,2.0,4.0,63,0.00,,,0.00,Wunderground v.1.15,2013-01-23 04:50:00,
2013-01-22 23:55:00,13.1,2.9,30.39,WNW,293,2.0,4.0,63,0.00,,,0.00,Wunderground v.1.15,2013-01-23 04:55:00,